• In Hungary
  • List of Countries
  • For 7 days
  • Water Temperature
  • Satellite Maps
  • Weather Map
  • News
  • Weather Widgets
  • user-avatar
    Login

    Hourly Weather Nacharovo

    Today, 24 September, Monday

    Time Temperature Precipitation Wind Pressure Humidity
    00:00 +13°C° 0 mm 3 mps 747 mmHg 95%
    01:00 +13°C° 0 mm 3 mps 747 mmHg 95%
    02:00 +13°C° 0 mm 3 mps 747 mmHg 95%
    03:00 +13°C° 0 mm 3 mps 747 mmHg 96%
    04:00 +13°C° 0 mm 2 mps 747 mmHg 96%
    05:00 +12°C° 0 mm 3 mps 747 mmHg 96%
    06:00 +12°C° 0 mm 3 mps 747 mmHg 96%
    07:00 +12°C° 0 mm 3 mps 747 mmHg 95%
    08:00 +14°C° 0 mm 4 mps 746 mmHg 90%
    09:00 +17°C° 0 mm 4 mps 746 mmHg 84%
    10:00 +17°C° 0 mm 5 mps 746 mmHg 78%
    11:00 +19°C° 0 mm 5 mps 746 mmHg 73%
    12:00 +20°C° 0 mm 5 mps 746 mmHg 68%
    13:00 +21°C° 0 mm 5 mps 746 mmHg 63%
    14:00 +21°C° 0 mm 5 mps 746 mmHg 64%
    15:00 +21°C° 0 mm 5 mps 746 mmHg 65%
    16:00 +21°C° 0 mm 3 mps 746 mmHg 66%
    17:00 +20°C° 0 mm 3 mps 746 mmHg 72%
    18:00 +18°C° 0 mm 3 mps 746 mmHg 78%
    19:00 +17°C° 0 mm 3 mps 746 mmHg 83%
    20:00 +16°C° 0 mm 3 mps 746 mmHg 84%
    21:00 +16°C° 0 mm 3 mps 746 mmHg 84%
    22:00 +14°C° 0 mm 3 mps 746 mmHg 85%
    23:00 +14°C° 0 mm 3 mps 746 mmHg 84%

    Tomorrow, 25 September, Tuesday

    Time Temperature Precipitation Wind Pressure Humidity
    00:00 +13°C° 0 mm 3 mps 746 mmHg 84%
    01:00 +13°C° 0 mm 3 mps 745 mmHg 84%
    02:00 +12°C° 0 mm 3 mps 745 mmHg 83%
    03:00 +12°C° 0 mm 3 mps 745 mmHg 82%
    04:00 +12°C° 0 mm 4 mps 745 mmHg 81%
    05:00 +12°C° 0 mm 4 mps 746 mmHg 79%
    06:00 +12°C° 0 mm 4 mps 746 mmHg 77%
    07:00 +12°C° 0 mm 5 mps 746 mmHg 75%
    08:00 +14°C° 0 mm 5 mps 745 mmHg 69%
    09:00 +15°C° 0 mm 6 mps 745 mmHg 63%
    10:00 +17°C° 0 mm 7 mps 745 mmHg 57%
    11:00 +18°C° 0 mm 7 mps 745 mmHg 55%
    12:00 +20°C° 0 mm 7 mps 745 mmHg 53%
    13:00 +21°C° 0 mm 8 mps 745 mmHg 51%
    14:00 +21°C° 0 mm 7 mps 745 mmHg 53%
    15:00 +21°C° 0 mm 6 mps 745 mmHg 56%
    16:00 +21°C° 0 mm 5 mps 745 mmHg 58%
    17:00 +19°C° 0 mm 5 mps 745 mmHg 61%
    18:00 +17°C° 0 mm 5 mps 745 mmHg 65%
    19:00 +16°C° 0 mm 5 mps 745 mmHg 68%
    20:00 +15°C° 0 mm 4 mps 745 mmHg 70%
    21:00 +15°C° 0 mm 4 mps 745 mmHg 72%
    22:00 +14°C° 0 mm 4 mps 745 mmHg 74%
    23:00 +14°C° 0 mm 4 mps 745 mmHg 73%

    Day after tomorrow, 26 September, Wednesday

    Time Temperature Precipitation Wind Pressure Humidity
    00:00 +13°C° 0 mm 4 mps 745 mmHg 72%
    01:00 +13°C° 0 mm 5 mps 745 mmHg 70%
    02:00 +13°C° 0 mm 5 mps 745 mmHg 68%
    03:00 +13°C° 0 mm 5 mps 745 mmHg 66%
    04:00 +13°C° 0 mm 6 mps 745 mmHg 64%
    05:00 +13°C° 0 mm 6 mps 745 mmHg 64%
    06:00 +13°C° 0 mm 6 mps 745 mmHg 64%
    07:00 +14°C° 0 mm 6 mps 745 mmHg 64%
    08:00 +14°C° 0 mm 6 mps 746 mmHg 63%
    09:00 +14°C° 0 mm 6 mps 746 mmHg 62%
    10:00 +15°C° 0 mm 6 mps 746 mmHg 61%
    11:00 +15°C° 0.1 mm 5 mps 747 mmHg 64%
    12:00 +14°C° 0.1 mm 5 mps 747 mmHg 66%
    13:00 +14°C° 0.1 mm 4 mps 747 mmHg 69%
    14:00 +13°C° 0.4 mm 4 mps 748 mmHg 74%
    15:00 +12°C° 0.4 mm 4 mps 748 mmHg 79%
    16:00 +12°C° 0.4 mm 3 mps 748 mmHg 84%
    17:00 +11°C° 0.3 mm 3 mps 748 mmHg 87%
    18:00 +11°C° 0.3 mm 3 mps 749 mmHg 90%
    19:00 +10°C° 0.3 mm 2 mps 749 mmHg 93%
    20:00 +10°C° 0 mm 2 mps 749 mmHg 93%
    21:00 +10°C° 0 mm 2 mps 749 mmHg 92%
    22:00 +10°C° 0 mm 2 mps 749 mmHg 92%
    23:00 +10°C° 0.2 mm 2 mps 749 mmHg 92%

    27 September, Thursday

    Time Temperature Precipitation Wind Pressure Humidity
    00:00 +11°C° 0.2 mm 1 mps 749 mmHg 93%
    01:00 +10°C° 0.2 mm 1 mps 749 mmHg 93%
    02:00 +9°C° 0.4 mm 2 mps 748 mmHg 93%
    03:00 +9°C° 0.4 mm 2 mps 748 mmHg 94%
    04:00 +9°C° 0.4 mm 2 mps 748 mmHg 94%
    05:00 +8°C° 0.2 mm 2 mps 748 mmHg 94%
    06:00 +8°C° 0.2 mm 3 mps 747 mmHg 94%
    07:00 +8°C° 0.2 mm 3 mps 747 mmHg 94%
    08:00 +8°C° 0 mm 4 mps 747 mmHg 87%
    09:00 +8°C° 0 mm 4 mps 747 mmHg 81%
    10:00 +9°C° 0 mm 5 mps 747 mmHg 75%
    11:00 +9°C° 0 mm 5 mps 747 mmHg 73%
    12:00 +9°C° 0 mm 5 mps 746 mmHg 70%
    13:00 +10°C° 0 mm 5 mps 746 mmHg 67%
    14:00 +9°C° 0 mm 5 mps 746 mmHg 68%
    15:00 +9°C° 0 mm 5 mps 746 mmHg 68%
    16:00 +9°C° 0 mm 5 mps 745 mmHg 69%
    17:00 +8°C° 0 mm 5 mps 745 mmHg 71%
    18:00 +7°C° 0 mm 5 mps 745 mmHg 74%
    19:00 +6°C° 0 mm 4 mps 744 mmHg 76%
    20:00 +6°C° 0 mm 5 mps 744 mmHg 76%
    21:00 +6°C° 0 mm 5 mps 743 mmHg 76%
    22:00 +6°C° 0 mm 5 mps 743 mmHg 76%
    23:00 +5°C° 0 mm 5 mps 742 mmHg 76%

    28 September, Friday

    Time Temperature Precipitation Wind Pressure Humidity
    00:00 +5°C° 0 mm 5 mps 742 mmHg 75%
    01:00 +5°C° 0 mm 5 mps 741 mmHg 75%
    02:00 +4°C° 0.4 mm 6 mps 740 mmHg 78%
    03:00 +4°C° 0.4 mm 6 mps 740 mmHg 80%
    04:00 +4°C° 0.4 mm 6 mps 739 mmHg 83%
    05:00 +4°C° 0.7 mm 6 mps 739 mmHg 84%
    06:00 +4°C° 0.7 mm 6 mps 739 mmHg 86%
    07:00 +4°C° 0.7 mm 6 mps 738 mmHg 87%
    08:00 +4°C° 0.3 mm 6 mps 739 mmHg 85%
    09:00 +5°C° 0.3 mm 6 mps 739 mmHg 83%
    10:00 +5°C° 0.3 mm 6 mps 739 mmHg 81%
    11:00 +7°C° 0.1 mm 6 mps 739 mmHg 78%
    12:00 +7°C° 0.1 mm 6 mps 740 mmHg 76%
    13:00 +7°C° 0.1 mm 6 mps 740 mmHg 73%
    14:00 +8°C° 0.1 mm 6 mps 741 mmHg 72%
    15:00 +8°C° 0.1 mm 6 mps 741 mmHg 70%
    16:00 +8°C° 0.1 mm 5 mps 741 mmHg 69%
    17:00 +7°C° 0 mm 5 mps 741 mmHg 73%
    18:00 +6°C° 0 mm 4 mps 741 mmHg 77%
    19:00 +5°C° 0 mm 3 mps 742 mmHg 80%
    20:00 +5°C° 0 mm 3 mps 741 mmHg 81%
    21:00 +5°C° 0 mm 4 mps 741 mmHg 81%
    22:00 +5°C° 0 mm 4 mps 741 mmHg 82%
    23:00 +5°C° 0.3 mm 5 mps 740 mmHg 82%

    29 September, Saturday

    Time Temperature Precipitation Wind Pressure Humidity
    00:00 +4°C° 0.3 mm 6 mps 740 mmHg 83%
    01:00 +4°C° 0.3 mm 7 mps 739 mmHg 83%
    02:00 +5°C° 1.6 mm 7 mps 737 mmHg 84%
    03:00 +5°C° 1.6 mm 8 mps 736 mmHg 85%
    04:00 +6°C° 1.6 mm 9 mps 735 mmHg 85%
    05:00 +6°C° 1.4 mm 10 mps 734 mmHg 85%
    06:00 +7°C° 1.4 mm 11 mps 734 mmHg 84%
    07:00 +8°C° 1.4 mm 11 mps 733 mmHg 84%
    08:00 +7°C° 0.1 mm 11 mps 735 mmHg 82%
    09:00 +4°C° 0.1 mm 11 mps 736 mmHg 79%
    10:00 +3°C° 0.1 mm 11 mps 738 mmHg 77%
    11:00 +5°C° 0 mm 10 mps 740 mmHg 74%
    12:00 +5°C° 0 mm 10 mps 741 mmHg 71%
    13:00 +6°C° 0 mm 9 mps 743 mmHg 68%
    14:00 +5°C° 0 mm 8 mps 744 mmHg 67%
    15:00 +5°C° 0 mm 7 mps 745 mmHg 67%
    16:00 +5°C° 0 mm 6 mps 746 mmHg 66%
    17:00 +5°C° 0 mm 5 mps 746 mmHg 68%
    18:00 +5°C° 0 mm 5 mps 747 mmHg 71%
    19:00 +4°C° 0 mm 4 mps 748 mmHg 73%
    20:00 +3°C° 0 mm 3 mps 748 mmHg 75%
    21:00 +3°C° 0 mm 3 mps 749 mmHg 76%
    22:00 +2°C° 0 mm 3 mps 749 mmHg 78%
    23:00 +2°C° 0 mm 3 mps 750 mmHg 79%
    Show more